User: anonymous   Login
Location: Mentone
(34.5413°N, 85.5351°W)
Time: 16:29:11
(UTC-05:00)
Language:

A-11 Canister half - Orbit

View from above orbital plane
View from above orbital plane
View from above satellite
View from above satellite

Ground track
Ground track

The orbit data is extracted from the following two-line orbital elements,

1 00053U 60009E   15181.18042938 -.00000085  00000-0  00000+0 0  9997
2 00053 047.2762 093.5430 0097264 119.5311 241.5217 12.17169589447580
Epoch (UTC): 30 June 2015 04:19:49
Eccentricity: 0.0097264
inclination: 47.2762°
perigee height: 1527 km
apogee height: 1682 km
right ascension of ascending node: 93.5430°
argument of perigee: 119.5311°
revolutions per day: 12.17169589
mean anomaly at epoch: 241.5217°
orbit number at epoch: 44758

The dashed part of the orbit path shows where the satellite is in the earth's shadow,  

DLR